[[{"header":{"parameterUnit":"m.s-1","parameterCategory":1,"la1":30.2991,"la2":30.254,"lo1":-89.0895,"lo2":-89.0444,"dy":0.0017,"dx":0.0017,"nx":28,"ny":28,"refTime":"2025-04-06T21:00:00:Z","depth":0,"parameterNumber":2,"parameterNumberName":"U-component_of_WINDS"},"data":[0,0,0,0,0,0,0,0,0,0,0,0,0,0,0,0,0,0,0,0,0,0,0,0,0,0,0,0,0,0,0,0,0,0,0,0,0,0,0,0,0,0,0,0,0,0,0,0,0,0,0,0,0,0,0,0,0,0,2.3076,2.3075,0,2.2986,2.2985,2.2984,2.2927,2.2927,2.2927,2.2927,2.2834,2.2832,2.283,0,0,0,0,0,0,0,0,0,0,0,0,0,2.32,2.3198,2.3076,2.3075,2.3074,2.2986,2.2985,2.2984,2.2928,2.2927,2.2927,2.2926,2.2835,2.2833,2.283,0,0,0,0,0,0,0,0,0,0,0,0,0,2.3132,2.3197,2.3077,2.3035,2.3031,2.2987,2.2985,2.2984,2.2928,2.2927,2.2927,2.2926,2.2836,2.2833,2.283,2.2819,0,0,2.282,2.2818,0,0,0,0,0,0,0,0,2.3136,2.3127,2.3043,2.3038,2.3033,2.2968,2.2995,2.2929,2.2928,2.2967,2.2927,2.2926,2.2879,2.2872,2.2857,2.2815,2.2811,2.282,2.2818,2.2816,2.2815,0,0,0,0,0,0,0,2.314,2.3131,2.3041,2.3041,2.3035,2.3021,2.3011,2.2982,2.2927,2.2963,2.2959,2.2949,2.2876,2.286,2.2854,2.281,2.282,2.2817,2.2815,2.2814,2.2755,2.2755,0,0,0,0,0,0,2.3152,2.3135,2.3043,2.3038,2.3084,2.302,2.3008,2.2989,2.2927,2.2917,2.295,2.2947,2.2866,2.2858,2.2851,2.2834,2.2816,2.2813,2.2811,2.2755,2.2755,2.2756,0,0,0,0,0,0,2.3155,2.3144,2.3047,2.3085,2.3072,2.3018,2.2997,2.2988,2.2971,2.2917,2.2906,2.2943,2.2865,2.2855,2.2827,2.283,2.2812,2.2809,2.2754,2.2755,2.2755,2.2802,0,0,0,0,0,0,2.3158,2.3145,2.3141,2.3086,2.307,2.3026,2.2997,2.2986,2.2965,2.2961,2.2907,2.2898,2.2864,2.2833,2.2824,2.2826,2.2806,2.2754,2.2755,2.2755,2.28,2.2804,2.2808,0,0,0,0,0,2.3163,2.3158,2.3141,2.313,2.3063,2.3026,2.3017,2.2978,2.2966,2.2961,2.2926,2.29,2.2831,2.283,2.282,2.2821,2.2753,2.2754,2.2755,2.2798,2.2803,2.2808,0,0,0,0,0,0,2.3215,2.315,2.3131,2.3107,2.3073,2.3017,2.3009,2.2984,2.2952,2.295,2.2902,2.289,2.2868,2.2841,2.2841,2.2807,2.2789,2.2788,2.2826,2.283,2.2834,2.2841,2.2804,0,0,0,0,0,2.3224,2.3199,2.3143,2.3128,2.3112,2.3064,2.3046,2.3019,2.2981,2.2966,2.2929,2.2893,2.2864,2.2845,2.2815,2.2796,2.2783,2.2791,2.2795,2.2798,2.2798,2.2786,2.2789,2.2758,2.2758,2.2758,0,0,2.3242,2.3203,2.3191,2.3138,2.3108,2.3083,2.3052,2.3027,2.3008,2.2962,2.2934,2.2906,2.2863,2.2839,2.2827,2.2817,2.2804,2.2799,2.2803,2.28,2.2787,2.279,2.2792,2.2759,2.2759,2.2759,0,0,2.3262,2.3231,2.3214,2.3185,2.314,2.3107,2.3104,2.3051,2.3031,2.3001,2.2966,2.2943,2.2893,2.2864,2.2842,2.2851,2.2826,2.2843,2.2863,2.2851,2.2854,2.2856,2.2859,2.2861,2.2843,2.2843,2.2843,0,2.3291,2.3252,2.3209,2.3187,2.3165,2.3121,2.3105,2.3078,2.3025,2.3011,2.3,2.2936,2.2904,2.2873,2.2875,2.2859,2.2854,2.2849,2.2857,2.2858,2.2859,2.2862,2.2863,2.2845,2.2845,2.2845,2.2844,0,2.3289,2.3263,2.3255,2.3205,2.3182,2.3163,2.3117,2.3099,2.3073,2.3043,2.3013,2.2973,2.2934,2.2924,2.2899,2.289,2.2885,2.2866,2.2847,2.2865,2.2867,2.2868,2.2848,2.2848,2.2847,2.2846,0,0,2.3341,2.3267,2.3265,2.3242,2.3188,2.3167,2.3145,2.3107,2.3092,2.3057,2.3038,2.2996,2.2978,2.2954,2.2925,2.2915,2.2925,2.2897,2.2896,2.2904,2.2912,2.2927,2.2928,2.2907,2.2907,2.2907,2.2915,0,2.3353,2.3312,2.3273,2.3246,2.3221,2.318,2.3161,2.3126,2.3096,2.3071,2.3038,2.3009,2.2988,2.2973,2.2961,2.2926,2.2926,2.2925,2.2889,2.2888,2.2901,2.2929,2.2945,2.2954,2.2916,2.2916,2.2916,0,2.3363,2.3329,2.33,2.3249,2.3237,2.3221,2.3182,2.3158,2.3118,2.3097,2.307,2.3039,2.3014,2.2998,2.2962,2.2963,2.2945,2.2926,2.2925,2.2921,2.2904,2.2926,2.2956,2.2958,2.2916,2.2916,2.2916,0,2.3404,2.3351,2.3327,2.3308,2.3248,2.3237,2.3212,2.3171,2.315,2.3116,2.3102,2.3066,2.3046,2.3019,2.2979,2.297,2.2948,2.2928,2.293,2.2931,2.2927,2.2928,2.2956,2.2916,2.2916,2.2916,2.2916,0,2.3422,2.3406,2.3344,2.333,2.331,2.3265,2.3247,2.3218,2.3181,2.316,2.3121,2.3102,2.305,2.3025,2.2993,2.2969,2.296,2.2942,2.2934,2.2946,2.2948,2.2935,2.2933,2.2916,2.2916,2.2916,2.2916,0,2.3465,2.3423,2.3394,2.3339,2.3324,2.3313,2.3265,2.3249,2.3217,2.319,2.3182,2.3131,2.3099,2.3056,2.3011,2.299,2.2969,2.2956,2.2983,2.2978,2.2983,2.2983,2.3003,2.3003,2.2963,2.2964,2.2964,0,2.348,2.3466,2.341,2.3392,2.3368,2.3341,2.3319,2.3274,2.3253,2.3206,2.3196,2.316,2.313,2.308,2.304,2.3005,2.2991,2.3,2.2985,2.2997,2.2991,2.2992,2.2991,2.3004,2.3005,2.3005,2.3006,0,2.3511,2.3491,2.3461,2.3424,2.34,2.3368,2.3336,2.3324,2.3271,2.325,2.3217,2.3193,2.3146,2.3112,2.3071,2.3044,2.3016,2.3011,2.3009,2.3021,2.3037,2.3029,2.2994,2.301,2.301,2.301,2.3009,2.3009,2.354,2.3526,2.3484,2.3452,2.3423,2.3393,2.3375,2.334,2.3312,2.327,2.3245,2.3213,2.3172,2.3114,2.3089,2.3062,2.3051,2.305,2.3049,2.3049,2.3053,2.3041,2.3055,2.3055,2.3054,2.3054,2.3054,0,2.3569,2.354,2.3511,2.3466,2.3441,2.3417,2.3379,2.336,2.3332,2.3296,2.3266,2.3228,2.3194,2.315,2.3113,2.3101,2.3087,2.3093,2.3093,2.3088,2.3065,2.307,2.3104,2.3104,2.3104,2.3104,2.3104,2.3104,2.3582,2.3557,2.3531,2.3491,2.3462,2.343,2.341,2.3382,2.3353,2.3312,2.3284,2.3255,2.3216,2.3176,2.3144,2.3132,2.312,2.313,2.3114,2.3094,2.3089,2.3085,2.3089,2.3127,2.3127,2.3138,2.3138,2.3139]},{"header":{"parameterUnit":"m.s-1","parameterCategory":1,"la1":30.2991,"la2":30.254,"lo1":-89.0895,"lo2":-89.0444,"dy":0.0017,"dx":0.0017,"nx":28,"ny":28,"refTime":"2025-04-06T21:00:00:Z","depth":0,"parameterNumber":3,"parameterNumberName":"V-component_of_WINDS"},"data":[0,0,0,0,0,0,0,0,0,0,0,0,0,0,0,0,0,0,0,0,0,0,0,0,0,0,0,0,0,0,0,0,0,0,0,0,0,0,0,0,0,0,0,0,0,0,0,0,0,0,0,0,0,0,0,0,0,0,5.7131,5.7135,0,5.7489,5.7493,5.7497,5.761,5.7609,5.7607,5.7606,5.7963,5.7974,5.7985,0,0,0,0,0,0,0,0,0,0,0,0,0,5.6536,5.6546,5.7131,5.7135,5.714,5.7488,5.7493,5.7498,5.7611,5.7609,5.7607,5.7605,5.796,5.7973,5.7986,0,0,0,0,0,0,0,0,0,0,0,0,0,5.6834,5.6549,5.713,5.7238,5.7251,5.7487,5.7493,5.7499,5.7611,5.7609,5.7606,5.7604,5.7955,5.7972,5.7988,5.8139,0,0,5.8039,5.8046,0,0,0,0,0,0,0,0,5.6817,5.6855,5.7218,5.7231,5.7246,5.7503,5.7415,5.7714,5.7612,5.7474,5.7605,5.7603,5.7812,5.784,5.7912,5.8156,5.8172,5.804,5.805,5.8057,5.8062,0,0,0,0,0,0,0,5.6796,5.684,5.7272,5.7223,5.724,5.7266,5.7305,5.7472,5.7652,5.7486,5.7495,5.7536,5.7819,5.7896,5.7921,5.8177,5.804,5.8054,5.8065,5.8071,5.8565,5.8568,0,0,0,0,0,0,5.6758,5.6823,5.7261,5.7283,5.7021,5.7279,5.7323,5.7423,5.7651,5.7683,5.7538,5.754,5.7869,5.7902,5.7934,5.813,5.8057,5.8073,5.8082,5.8562,5.8566,5.857,0,0,0,0,0,0,5.6745,5.6796,5.7246,5.7056,5.7115,5.7292,5.7403,5.7431,5.7509,5.769,5.7722,5.7585,5.7868,5.7911,5.8089,5.8144,5.808,5.8095,5.8559,5.8563,5.8568,5.8519,0,0,0,0,0,0,5.6727,5.6791,5.6852,5.7056,5.7125,5.7397,5.7406,5.744,5.7538,5.7544,5.7742,5.7772,5.7869,5.8063,5.8105,5.8165,5.8108,5.8554,5.8561,5.8566,5.8517,5.8522,5.8526,0,0,0,0,0,5.6706,5.6822,5.6855,5.6907,5.7206,5.74,5.7439,5.7551,5.7542,5.7604,5.7721,5.7766,5.813,5.8081,5.8129,5.8194,5.8552,5.8559,5.8566,5.8515,5.8521,5.8526,0,0,0,0,0,0,5.6616,5.685,5.689,5.7076,5.7218,5.7419,5.7501,5.7553,5.7698,5.7698,5.7828,5.7871,5.804,5.8134,5.8075,5.8354,5.8343,5.836,5.8287,5.8294,5.8299,5.8274,5.8122,0,0,0,0,0,5.6618,5.6759,5.6955,5.71,5.717,5.7323,5.7411,5.7486,5.7637,5.7696,5.7826,5.7969,5.8116,5.8209,5.8354,5.853,5.8575,5.8598,5.8603,5.8606,5.862,5.8722,5.8735,5.8593,5.8593,5.8593,0,0,5.6623,5.6769,5.6849,5.7086,5.7205,5.7346,5.7372,5.752,5.7626,5.7718,5.7896,5.7995,5.8163,5.8341,5.8426,5.8425,5.8669,5.8615,5.8616,5.8629,5.8731,5.8744,5.8756,5.8598,5.8597,5.8596,0,0,5.6706,5.683,5.6966,5.7085,5.7266,5.7368,5.7399,5.7594,5.7665,5.7846,5.7919,5.8044,5.8294,5.8412,5.8504,5.8631,5.8679,5.8674,5.8699,5.8797,5.8809,5.8819,5.8868,5.8883,5.8687,5.8687,5.8687,0,5.6689,5.6909,5.7028,5.7175,5.7277,5.7369,5.7507,5.7615,5.7832,5.79,5.7895,5.8213,5.8332,5.854,5.8571,5.8642,5.8683,5.8654,5.8798,5.881,5.8821,5.8869,5.8887,5.8685,5.8686,5.8686,5.8686,0,5.688,5.7031,5.7119,5.7331,5.7442,5.7583,5.7722,5.7819,5.7883,5.7984,5.8167,5.8312,5.849,5.8544,5.8606,5.8761,5.8756,5.8773,5.8765,5.8832,5.8879,5.8898,5.8683,5.8684,5.8684,5.8685,0,0,5.6918,5.7196,5.7227,5.7326,5.7532,5.7649,5.7793,5.797,5.8052,5.8197,5.8322,5.8532,5.855,5.8655,5.873,5.8816,5.8911,5.8824,5.8829,5.8837,5.9094,5.9083,5.9102,5.8943,5.8947,5.895,5.9081,0,5.7031,5.7298,5.7409,5.7623,5.7764,5.7853,5.7979,5.8118,5.8215,5.8347,5.8453,5.8602,5.8613,5.8677,5.8765,5.8881,5.8965,5.8872,5.906,5.9066,5.902,5.9126,5.9115,5.9232,5.91,5.9103,5.9106,0,5.7198,5.735,5.7579,5.7771,5.7834,5.7946,5.8118,5.8243,5.8401,5.8466,5.8583,5.8655,5.8808,5.8787,5.9001,5.8935,5.9018,5.9086,5.9093,5.9118,5.9092,5.9157,5.9272,5.929,5.9135,5.9133,5.9131,0,5.7207,5.7467,5.764,5.772,5.7947,5.8024,5.8121,5.8278,5.8377,5.8526,5.8592,5.8754,5.8844,5.8967,5.9081,5.9055,5.9284,5.9272,5.9343,5.934,5.939,5.9386,5.9523,5.9437,5.9436,5.9436,5.9436,0,5.7323,5.746,5.7648,5.7753,5.7909,5.8034,5.8185,5.8287,5.8426,5.8552,5.8636,5.8752,5.8894,5.9027,5.9116,5.928,5.9319,5.9376,5.9398,5.9371,5.9364,5.9429,5.9425,5.9441,5.944,5.9439,5.9438,0,5.736,5.7491,5.7685,5.7885,5.7938,5.8045,5.8215,5.832,5.8421,5.858,5.8624,5.8782,5.8944,5.9069,5.9277,5.9337,5.9512,5.9534,5.946,5.9473,5.9538,5.9531,5.9725,5.9758,5.9645,5.9645,5.9646,0,5.7428,5.7536,5.7749,5.7842,5.794,5.8086,5.819,5.8315,5.8419,5.8609,5.8691,5.8859,5.9001,5.9255,5.9387,5.9548,5.9577,5.9633,5.9601,5.9571,5.9582,5.9576,5.9589,5.9638,5.9639,5.9639,5.964,0,5.7534,5.7594,5.7742,5.7913,5.8035,5.8174,5.8315,5.8385,5.8536,5.8648,5.8816,5.8926,5.9142,5.9308,5.9482,5.958,5.9636,5.9648,5.9674,5.9649,5.9603,5.9632,5.9475,5.9644,5.9644,5.9643,5.9643,5.9643,5.7592,5.7694,5.786,5.8022,5.8142,5.8272,5.8383,5.8499,5.8642,5.8831,5.8894,5.9068,5.9224,5.9465,5.9564,5.9701,5.9703,5.9739,5.9749,5.9757,5.9756,5.9578,5.9732,5.9732,5.9732,5.9732,5.9732,0,5.7706,5.7818,5.7965,5.8163,5.829,5.8333,5.8491,5.8594,5.8747,5.889,5.9029,5.9222,5.9384,5.9529,5.9698,5.9779,5.9809,5.9819,5.9817,5.9839,5.9743,5.9706,5.9793,5.9793,5.9793,5.9793,5.9793,5.9793,5.778,5.7956,5.8036,5.8271,5.8382,5.8556,5.8643,5.8763,5.8878,5.9092,5.9229,5.9323,5.9467,5.9647,5.9797,5.9835,5.9895,5.9899,5.9944,5.9853,5.9845,5.9838,5.9804,5.991,5.991,6.003,6.0031,6.0032]}]]